Flag for Netherlands Weather past 2 weeks in Maastricht, Netherlands

Now
55 °F

Cool.


Feels Like: 53 °F
Forecast: 51 / 66 °F
Wind: 8 mph from Southwest

Location: Maastricht Airport Zuid Limburg

Current Time: Aug 21, 2014 at 10:13:57 AM

Latest Report: Aug 21, 2014 at 9:55 AM


Visibility: N/A

Pressure: 30.04 "Hg

Humidity: 82%

Dew point: 50 °F

Location of MaastrichtLocation

Historic Weather in Maastricht — Graph

°F

Maastricht temperature yesterday

Maximum temperature yesterday: 64 °F (at 12:55 PM)
Minimum temperature yesterday: 46 °F (at 3:25 AM)
Average temperature yesterday: 54 °F

Past Weeks' High & Low Weather Summary

 TemperatureHumidityPressure
High75 °F (Aug 7, 2:55 PM)100% (Aug 7, 1:25 AM)30.12 "Hg (Aug 7, 1:25 AM)
Low46 °F (Aug 20, 3:25 AM)50% (Aug 13, 5:55 PM)29.56 "Hg (Aug 10, 5:55 PM)
Average61 °F81%29.87 "Hg
* Reported Aug 6 8:25 AM — Aug 21 8:55 AM, Maastricht, Weather by CustomWeather, © 2014

Note: Actual official high and low records may vary slightly from our data, if they occured in-between our weather recording intervals... More about our weather records

Advertising

Maastricht weather history for previous 24 hours

 ConditionsComfort  
Time TempWeatherWind HumidityBarometerVisibility
8:55 AM
Aug 21
50 °FCool.13 mph94%30.04 "HgN/A
8:25 AM50 °FCool.14 mph88%30.04 "HgN/A
7:55 AM48 °FCool.13 mph94%30.04 "HgN/A
7:25 AM48 °FCool.10 mph94%30.04 "Hg5 mi
6:55 AM46 °FCool.9 mph100%30.04 "Hg4 mi
6:25 AM46 °FCool.8 mph100%30.04 "Hg4 mi
5:55 AM46 °FCool.8 mph100%30.04 "Hg4 mi
5:25 AM46 °FCool.7 mph100%30.04 "Hg4 mi
4:55 AM46 °FCool.7 mph100%30.04 "Hg4 mi
4:25 AM46 °FClear.7 mph100%30.04 "HgN/A
3:55 AM48 °FCool.7 mph94%30.04 "HgN/A
3:25 AM46 °FPassing clouds.7 mph100%30.04 "HgN/A
2:55 AM48 °FCool.6 mph94%30.04 "HgN/A
2:25 AM46 °FClear.7 mph100%30.04 "HgN/A
1:55 AM46 °FCool.6 mph100%30.04 "HgN/A
1:25 AM48 °FCool.7 mph94%30.04 "HgN/A
12:55 AM48 °FCool.5 mph94%30.04 "HgN/A
12:25 AM50 °FCool.5 mph94%30.04 "HgN/A
11:55 PM
Aug 20
50 °FClear.6 mph94%30.04 "HgN/A
11:25 PM52 °FPassing clouds.5 mph94%30.04 "HgN/A
10:55 PM54 °FPassing clouds.5 mph82%30.04 "HgN/A
10:25 PM52 °FClear.5 mph88%30.04 "HgN/A
9:55 PM52 °FClear.6 mph82%30.04 "HgN/A
9:25 PM54 °FClear.6 mph88%30.01 "HgN/A
8:55 PM54 °FClear.3 mph88%30.01 "HgN/A
8:25 PM55 °FPassing clouds.2 mph77%30.01 "HgN/A
7:55 PM55 °FPassing clouds.2 mph77%30.01 "HgN/A
7:25 PM57 °FPassing clouds.8 mph77%30.01 "HgN/A
6:55 PM57 °FPartly sunny.6 mph82%30.01 "HgN/A
6:25 PM59 °FPassing clouds.6 mph72%30.01 "HgN/A
5:55 PM57 °FPassing clouds.8 mph77%30.01 "HgN/A
5:25 PM57 °FPartly sunny.8 mph82%30.01 "HgN/A
4:55 PM55 °FHeavy rain. Broken clouds.12 mph82%30.01 "Hg1 mi
4:25 PM63 °FClear.10 mph56%29.98 "HgN/A
3:55 PM64 °FPassing clouds.9 mph52%30.01 "HgN/A
3:25 PM64 °FClear.9 mph52%30.01 "HgN/A
2:55 PM63 °FClear.10 mph56%30.01 "HgN/A
2:25 PM63 °FClear.5 mph59%30.01 "HgN/A
1:55 PM61 °FClear.7 mph59%30.01 "HgN/A
1:25 PM63 °FPassing clouds.5 mph59%30.01 "HgN/A
12:55 PM64 °FScattered clouds.8 mph60%30.01 "HgN/A
12:25 PM61 °FPartly sunny.9 mph63%30.01 "HgN/A
11:55 AM61 °FClear.9 mph63%30.01 "HgN/A
11:25 AM59 °FClear.10 mph63%30.01 "HgN/A
10:55 AM59 °FClear.9 mph72%30.04 "HgN/A
10:25 AM57 °FCool.8 mph72%30.04 "HgN/A
Weather by CustomWeather, © 2014

See weather overviewHow to use our weather pages